Location: Allie Creek
(37.5926°N, 89.8526°W)
Time: 10:06:05
(UTC+00:00)

FENGYUN 1C DEB - Pass Details

Date: 23 June 2024
Orbit: 785 x 860 km, 98.6° (Epoch: 14 July)

Event Time Altitude Azimuth Distance (km) Brightness Sun altitude
Rises 01:47:47 0° 208° (SSW) 3,289 ? -4.7°
Reaches altitude 10° 01:51:02 10° 230° (SW) 2,354 ? -5.2°
Maximum altitude 01:54:10 16° 267° (W) 1,955 ? -5.7°
Drops below altitude 10° 01:57:19 10° 305° (NW) 2,350 ? -6.3°
Sets 02:00:34 0° 327° (NNW) 3,281 ? -6.8°
